When you browse on this site, cookies collect data to enhance your experience and personalize the content and advertising you see.
Visit our Privacy Policy to learn more. By continuing to use the site, you agree to this use of cookies and data.
  • în România
  • Lista ţărilor
  • Pe 7 zile
  • Temperatura apei
  • Meteo pe hartă
  • Widget-uri
  • user-avatar
    Intrare

    Meteo pe oră la Norwich

    Astăzi, 2 Iunie, Marţi

    Timp Temperatura Precipitaţii Vânt Presiune Umiditate
    00:00 +10°C° 0 mm 3 m/s 764 mmHg 94%
    01:00 +10°C° 0 mm 3 m/s 764 mmHg 94%
    02:00 +10°C° 0 mm 3 m/s 763 mmHg 94%
    03:00 +10°C° 0 mm 2 m/s 763 mmHg 94%
    04:00 +11°C° 0 mm 3 m/s 763 mmHg 92%
    05:00 +12°C° 0 mm 3 m/s 763 mmHg 90%
    06:00 +13°C° 0 mm 3 m/s 763 mmHg 88%
    07:00 +14°C° 0 mm 3 m/s 762 mmHg 83%
    08:00 +17°C° 0 mm 3 m/s 762 mmHg 77%
    09:00 +18°C° 0 mm 3 m/s 762 mmHg 72%
    10:00 +19°C° 0 mm 3 m/s 762 mmHg 69%
    11:00 +19°C° 0 mm 3 m/s 762 mmHg 67%
    12:00 +20°C° 0 mm 3 m/s 762 mmHg 64%
    13:00 +20°C° 0 mm 3 m/s 761 mmHg 65%
    14:00 +19°C° 0 mm 3 m/s 760 mmHg 66%
    15:00 +19°C° 0 mm 4 m/s 760 mmHg 66%
    16:00 +19°C° 0 mm 3 m/s 759 mmHg 68%
    17:00 +18°C° 0 mm 3 m/s 759 mmHg 70%
    18:00 +17°C° 0 mm 3 m/s 758 mmHg 72%
    19:00 +15°C° 0 mm 2 m/s 758 mmHg 77%
    20:00 +13°C° 0 mm 2 m/s 758 mmHg 83%
    21:00 +11°C° 0 mm 1 m/s 758 mmHg 88%
    22:00 +11°C° 0 mm 1 m/s 757 mmHg 86%
    23:00 +11°C° 0 mm 1 m/s 757 mmHg 85%

    Mâine, 3 Iunie, Miercuri

    Timp Temperatura Precipitaţii Vânt Presiune Umiditate
    00:00 +11°C° 0 mm 1 m/s 756 mmHg 84%
    01:00 +11°C° 0 mm 1 m/s 756 mmHg 82%
    02:00 +11°C° 0 mm 1 m/s 755 mmHg 80%
    03:00 +10°C° 0 mm 2 m/s 754 mmHg 79%
    04:00 +12°C° 0 mm 2 m/s 754 mmHg 78%
    05:00 +13°C° 0 mm 2 m/s 754 mmHg 77%
    06:00 +12°C° 0 mm 3 m/s 754 mmHg 77%
    07:00 +13°C° 0 mm 3 m/s 754 mmHg 77%
    08:00 +13°C° 0 mm 4 m/s 754 mmHg 77%
    09:00 +13°C° 0 mm 5 m/s 753 mmHg 78%
    10:00 +14°C° 0 mm 5 m/s 753 mmHg 78%
    11:00 +14°C° 0 mm 5 m/s 753 mmHg 77%
    12:00 +14°C° 0 mm 6 m/s 753 mmHg 77%
    13:00 +14°C° 0 mm 6 m/s 753 mmHg 75%
    14:00 +15°C° 0 mm 6 m/s 752 mmHg 74%
    15:00 +15°C° 0 mm 7 m/s 752 mmHg 72%
    16:00 +15°C° 0 mm 7 m/s 752 mmHg 73%
    17:00 +14°C° 0 mm 7 m/s 752 mmHg 73%
    18:00 +12°C° 0 mm 7 m/s 752 mmHg 74%
    19:00 +11°C° 0 mm 6 m/s 752 mmHg 78%
    20:00 +10°C° 0 mm 6 m/s 752 mmHg 81%
    21:00 +9°C° 0 mm 5 m/s 752 mmHg 85%
    22:00 +9°C° 0 mm 5 m/s 752 mmHg 86%
    23:00 +10°C° 0 mm 6 m/s 751 mmHg 87%

    Poimâine, 4 Iunie, Joi

    Timp Temperatura Precipitaţii Vânt Presiune Umiditate
    00:00 +10°C° 0 mm 6 m/s 751 mmHg 89%
    01:00 +10°C° 0.1 mm 6 m/s 751 mmHg 87%
    02:00 +10°C° 0.1 mm 6 m/s 751 mmHg 86%
    03:00 +10°C° 0.1 mm 6 m/s 750 mmHg 85%
    04:00 +10°C° 0.1 mm 6 m/s 750 mmHg 84%
    05:00 +10°C° 0.1 mm 6 m/s 750 mmHg 83%
    06:00 +10°C° 0.1 mm 6 m/s 750 mmHg 82%
    07:00 +10°C° 0.1 mm 7 m/s 749 mmHg 78%
    08:00 +10°C° 0.1 mm 7 m/s 749 mmHg 74%
    09:00 +11°C° 0.1 mm 7 m/s 749 mmHg 70%
    10:00 +11°C° 0.1 mm 7 m/s 749 mmHg 69%
    11:00 +11°C° 0.1 mm 7 m/s 749 mmHg 67%
    12:00 +11°C° 0.1 mm 7 m/s 749 mmHg 66%
    13:00 +11°C° 0.1 mm 7 m/s 748 mmHg 64%
    14:00 +12°C° 0.1 mm 7 m/s 748 mmHg 63%
    15:00 +12°C° 0.1 mm 7 m/s 748 mmHg 62%
    16:00 +11°C° 0 mm 6 m/s 748 mmHg 63%
    17:00 +12°C° 0 mm 5 m/s 747 mmHg 64%
    18:00 +11°C° 0 mm 4 m/s 747 mmHg 64%
    19:00 +10°C° 0 mm 4 m/s 747 mmHg 70%
    20:00 +9°C° 0 mm 3 m/s 747 mmHg 75%
    21:00 +7°C° 0 mm 2 m/s 747 mmHg 80%
    22:00 +7°C° 0.7 mm 2 m/s 747 mmHg 85%
    23:00 +7°C° 0.7 mm 2 m/s 747 mmHg 89%

    5 Iunie, Vineri

    Timp Temperatura Precipitaţii Vânt Presiune Umiditate
    00:00 +7°C° 0.7 mm 2 m/s 746 mmHg 94%
    01:00 +7°C° 0.1 mm 3 m/s 746 mmHg 94%
    02:00 +5°C° 0.1 mm 4 m/s 746 mmHg 94%
    03:00 +5°C° 0.1 mm 5 m/s 746 mmHg 94%
    04:00 +5°C° 0 mm 6 m/s 746 mmHg 91%
    05:00 +5°C° 0 mm 6 m/s 746 mmHg 88%
    06:00 +6°C° 0 mm 7 m/s 746 mmHg 86%
    07:00 +8°C° 0 mm 7 m/s 746 mmHg 78%
    08:00 +9°C° 0 mm 7 m/s 746 mmHg 69%
    09:00 +10°C° 0 mm 8 m/s 746 mmHg 61%
    10:00 +11°C° 0 mm 7 m/s 746 mmHg 60%
    11:00 +11°C° 0 mm 7 m/s 746 mmHg 60%
    12:00 +12°C° 0 mm 7 m/s 746 mmHg 59%
    13:00 +11°C° 0.3 mm 6 m/s 746 mmHg 66%
    14:00 +11°C° 0.3 mm 6 m/s 746 mmHg 74%
    15:00 +10°C° 0.3 mm 5 m/s 745 mmHg 81%
    16:00 +11°C° 0.5 mm 4 m/s 745 mmHg 82%
    17:00 +11°C° 0.5 mm 3 m/s 745 mmHg 84%
    18:00 +10°C° 0.5 mm 2 m/s 745 mmHg 86%
    19:00 +10°C° 0.1 mm 3 m/s 745 mmHg 86%
    20:00 +9°C° 0.1 mm 3 m/s 745 mmHg 87%
    21:00 +7°C° 0.1 mm 4 m/s 745 mmHg 88%
    22:00 +7°C° 0.1 mm 5 m/s 745 mmHg 89%
    23:00 +6°C° 0.1 mm 5 m/s 745 mmHg 90%

    6 Iunie, Sâmbătă

    Timp Temperatura Precipitaţii Vânt Presiune Umiditate
    00:00 +5°C° 0.1 mm 6 m/s 745 mmHg 90%
    01:00 +4°C° 0 mm 6 m/s 745 mmHg 91%
    02:00 +4°C° 0 mm 7 m/s 745 mmHg 91%
    03:00 +3°C° 0 mm 7 m/s 745 mmHg 91%
    04:00 +4°C° 0 mm 7 m/s 746 mmHg 87%
    05:00 +5°C° 0 mm 7 m/s 746 mmHg 84%
    06:00 +5°C° 0 mm 7 m/s 746 mmHg 81%
    07:00 +7°C° 0 mm 8 m/s 746 mmHg 73%
    08:00 +8°C° 0 mm 9 m/s 746 mmHg 65%
    09:00 +10°C° 0 mm 9 m/s 747 mmHg 57%
    10:00 +10°C° 0 mm 9 m/s 747 mmHg 57%
    11:00 +10°C° 0 mm 9 m/s 747 mmHg 58%
    12:00 +10°C° 0 mm 9 m/s 747 mmHg 58%
    13:00 +10°C° 0.1 mm 9 m/s 748 mmHg 60%
    14:00 +11°C° 0.1 mm 9 m/s 748 mmHg 61%
    15:00 +11°C° 0.1 mm 9 m/s 748 mmHg 62%
    16:00 +10°C° 0 mm 9 m/s 748 mmHg 63%
    17:00 +10°C° 0 mm 9 m/s 748 mmHg 63%
    18:00 +10°C° 0 mm 9 m/s 749 mmHg 64%
    19:00 +9°C° 0 mm 8 m/s 749 mmHg 65%
    20:00 +7°C° 0 mm 8 m/s 749 mmHg 67%
    21:00 +6°C° 0 mm 7 m/s 749 mmHg 69%
    22:00 +6°C° 0 mm 7 m/s 749 mmHg 71%
    23:00 +5°C° 0 mm 7 m/s 749 mmHg 73%

    7 Iunie, Duminică

    Timp Temperatura Precipitaţii Vânt Presiune Umiditate
    00:00 +5°C° 0 mm 8 m/s 750 mmHg 75%
    01:00 +5°C° 0 mm 8 m/s 750 mmHg 75%
    02:00 +5°C° 0 mm 8 m/s 750 mmHg 75%
    03:00 +4°C° 0 mm 8 m/s 750 mmHg 76%
    04:00 +5°C° 0 mm 8 m/s 750 mmHg 75%
    05:00 +5°C° 0 mm 8 m/s 750 mmHg 73%
    06:00 +5°C° 0 mm 8 m/s 751 mmHg 72%
    07:00 +7°C° 0 mm 8 m/s 751 mmHg 70%
    08:00 +9°C° 0 mm 8 m/s 751 mmHg 68%
    09:00 +10°C° 0 mm 8 m/s 752 mmHg 65%
    10:00 +11°C° 0.1 mm 8 m/s 752 mmHg 64%
    11:00 +11°C° 0.1 mm 8 m/s 752 mmHg 63%
    12:00 +11°C° 0.1 mm 8 m/s 753 mmHg 61%
    13:00 +11°C° 0.1 mm 8 m/s 753 mmHg 62%
    14:00 +11°C° 0.1 mm 8 m/s 753 mmHg 62%
    15:00 +11°C° 0.1 mm 8 m/s 753 mmHg 63%
    16:00 +11°C° 0 mm 7 m/s 753 mmHg 63%
    17:00 +11°C° 0 mm 6 m/s 753 mmHg 64%
    18:00 +13°C° 0 mm 5 m/s 753 mmHg 65%
    19:00 +10°C° 0 mm 5 m/s 753 mmHg 71%
    20:00 +9°C° 0 mm 5 m/s 754 mmHg 77%
    21:00 +8°C° 0 mm 5 m/s 754 mmHg 83%
    22:00 +8°C° 0 mm 5 m/s 754 mmHg 84%
    23:00 +8°C° 0 mm 6 m/s 754 mmHg 85%
    Arată mai mult